This is the latest recevied weather packets stored in our database for station/object WA9AFM. If no packets are shown the sender has not sent any weather packets the latest 10 day(s).
| Time | Temp. | Humidity | Pressure | Rain* | Wind** | Luminosity | Snow |
|---|---|---|---|---|---|---|---|
| 1787699006 | 35.56° C | 49% | 1006.1 hPa | 0 mm | - | - | - |
| 1787698105 | 35.56° C | 47% | 1006.2 hPa | 0 mm | - | - | - |
| 1787697205 | 36.11° C | 48% | 1006.3 hPa | 0 mm | - | - | - |
| 1787696305 | 36.11° C | 48% | 1006.3 hPa | 0 mm | - | - | - |
| 1787695405 | 36.67° C | 47% | 1006.3 hPa | 0 mm | - | - | - |
| 1787694504 | 36.67° C | 48% | 1006.3 hPa | 0 mm | - | - | - |
| 1787693606 | 37.22° C | 45% | 1006.4 hPa | 0 mm | - | - | - |
| 1787692705 | 38.89° C | 39% | 1006.2 hPa | 0 mm | - | - | - |
| 1787691806 | 38.89° C | 29% | 1006.6 hPa | 0 mm | - | - | - |
| 1787690905 | 40° C | 27% | 1006.6 hPa | 0 mm | - | - | - |
| 1787690005 | 40° C | 27% | 1006.5 hPa | 0 mm | - | - | - |
| 1787689106 | 40° C | 28% | 1006.4 hPa | 0 mm | - | - | - |
| 1787688205 | 40.56° C | 25% | 1006.2 hPa | 0 mm | - | - | - |
| 1787687306 | 40.56° C | 25% | 1006.2 hPa | 0 mm | - | - | - |
| 1787686405 | 41.11° C | 26% | 1006.4 hPa | 0 mm | - | - | - |
| 1787685504 | 40° C | 26% | 1006.6 hPa | 0 mm | - | - | - |
| 1787684606 | 40° C | 26% | 1006.7 hPa | 0 mm | - | - | - |
| 1787683705 | 39.44° C | 29% | 1006.8 hPa | 0 mm | - | - | - |
| 1787682806 | 39.44° C | 28% | 1006.8 hPa | 0 mm | - | - | - |
| 1787681905 | 39.44° C | 30% | 1006.7 hPa | 0 mm | - | - | - |
| 1787681004 | 38.89° C | 28% | 1006.6 hPa | 0 mm | - | - | - |
| 1787680105 | 38.89° C | 30% | 1006.5 hPa | 0 mm | - | - | - |
| 1787679205 | 38.33° C | 30% | 1006.6 hPa | 0 mm | - | - | - |
| 1787678305 | 37.78° C | 31% | 1006.9 hPa | 0 mm | - | - | - |
| 1787677405 | 36.67° C | 32% | 1007.1 hPa | 0 mm | - | - | - |
* Rain latest hour (hover to see other rain measurements)
** Current wind speed in m/s (hover to see current wind gust speed)